Zurück zum Katalog

STARLINK-34801

AktivKommunikationVLEO
NORAD 66076·PAYLOAD·🇺🇸 United States

Gestartet Oct 19, 2025 von Cape Canaveral Space Force Station

Loading…

Nächste Überflüge (nächste 24 Stunden)

TLE

AktuellSource: CelesTrak SupGP

Epoche: Sep 15, 2026, 03:09 UTC

1 66076C 25235U   26258.13173611 -.00023020  00000+0 -68015-3 0  2587
2 66076  53.1588  84.8416 0001230  85.9833 244.6084 15.34402115    15

Verfolge STARLINK-34801 in Echtzeit mit AllMySat

Download on the App Store